ARIANE 5 R/B, 49335

Orbit data source: Space-Track

ARIANE 5 R/B, 49335 is space debris in HEO originally from a launch on Sun, 24 Oct 2021 UTC launched from the French Guiana (FRGUI). Debris objects in space refer to the collection of defunct objects orbiting the Earth. Examples of debris include non-operational satellites, rocket bodies, and fragments generated from explosions, collisions, or faulty payload assembly.

Loading next visibility...
Identifier
49335, 2021-095D
Orbit
HEO
Country
Flag of FRFR
Related business
Manufacturer
ArianeGroup
Mission
Spacecraft
Bus & Motor
ESC-A, Unknown motor
Mass
~5,000 kg wet, ~5,000 kg dry
Launch date (UTC)
2021-10-24 (4 years ago)
Launch vehicle
Unknown
Launch site
French Guiana (FRGUI)
Object type
Payload
Rocket body
Debris
Shape & HBR
Cyl + 1 Nozzle, 3.5 m
Radar Cross Section
41.627 m², Large (>1 m²)

Expand to show TLE details & history
Last TLE update: 23 hours ago

TLE from 23 hours ago
0 ARIANE 5 R/B
1 49335U 21095D   25346.20399107  .00002156  00000-0  93117-3 0  9990
2 49335   5.9266 309.0619 7085263  63.7738 350.8607  2.51803614 36588
Epoch: 2025-12-12T04:53Z
TLE epoch observation values (Epoch: 2025-12-12T04:53:44.828Z)
Latitude
0.00004°
Longitude
154.60307°
Altitude
2,282.461 km
Speed
8.635 km/s
True Right ascension
20h 36m 45s
True Declination
0° 00' 00"
Sunlit
Object was in daylight at epoch
Visualization orbit readout
Latitude
Unknown
Longitude
Unknown
Altitude
Unknown
Speed
Unknown
Apparent Right ascension
Unknown
Apparent Declination
Unknown
Sunlit
N/A
Visualization observer readout
Local Sidereal Time
02:38:46
Azimuth
Unknown
Elevation
Unknown
Doppler factor
Unknown
Orbital elements
Apogee altitude
32,623.721 km
Perigee altitude
275.56 km
Semi-major axis
22,827.778 km
Eccentricity
0.70853
Inclination
5.9266°
RAAN
309.0619°
Arg. of periapsis
63.7738°
True anomaly
296.77834°
Mean anomaly
350.8607°
Eccentric anomaly
331.47395°
Mean motion
0.62929 °/min
Orbital period
572.08 mins
BSTAR
0.00093117
Loading maneuver chart data...
Computing Atmospheric mass density...
Loading historical data...
Loading historical data...
Loading historical data...
Loading historical data...
Loading historical data...
Loading historical data...
Loading historical data...
Other satellites on launch #95 in the year 2021 (2021-10-24 UTC)

Documentation

Showing up to 5 results
|